SL-16 DEB

Satellite information

Favourite Embed

Satellite Type and Status

DEBRISIN ORBIT

Key statistics

Satellite SL-16 DEB at a glance.

Uptime

11881

Days in orbit

Revolutions

≈ 14.1

Per day

Orbit

LEO

Low Earth Orbit

Inclination

70.9

Latest

Satellite identification and parameters

Extended collection of information and parameters for SL-16 DEB.

Object identification

Identified? True

Debris? True

Object name: SL-16 DEB

International designator: 1992-093CU

Object number (NORAD): 22403

Object ID (CCSDS): 22403

Country: COMMONWEALTH OF INDEPENDENT STATES (CIS)

Current information (Y/N): Y

RCS size: SMALL

Orbital parameters

Period: 102.383 minutes

Inclination: 70.8898 deg

SMA: 7249.551 km

Apoapsis: 931.967 km

Periapsis: 810.865 km

RAAN: 214.2777 deg

Eccentricy: 0.0083524

Argument of periapsis: 274.4326 deg

Mean anomaly: 207.4949 deg

Mean motion: 14.06488189 rev/day

Mean motion (dot): 0.00000393 rev/day2

B* drag term: 0.00025837 1/REarth

Two-line elements (TLE)

Creation date: July 4, 2025, 6:39 p.m.

Reference frame: TEME

Reference center: EARTH

Epoch: July 4, 2025, 12:22 p.m. UTC

TLE line 0: 0 SL-16 DEB

TLE line 1: 1 22403U 92093CU 25185.51544895 .00000393 00000-0 25837-3 0 9999

TLE line 2: 2 22403 70.8898 214.2777 0083524 274.4326 207.4949 14.06488189660548

Live tracking on map

Real-time ground track for satellite SL-16 DEB.

In-orbit conjunctions

A list of the most updated potential collisions computed for object SL-16 DEB.

Target Orbit TCA Probability of collision Miss distance Type
NOAA 16 DEB SSO 2025-05-26 17:03:33 0.0001992746 188.0 (m) DEBRIS
SL-3 R/B LEO 2024-10-18 21:23:38 0.0006801932 149.0 (m) ROCKET BODY
COSMOS 1299 LEO 2024-09-12 04:00:42 0.0001451745 727.0 (m) PAYLOAD
SL-14 R/B LEO 2024-08-20 22:27:04 0.0001644102 903.0 (m) ROCKET BODY

Associated space launch

Second generation ELING satellite

SL-16 DEB was lifted into orbit during the mission ‘Zenit-2 | Tselina-2 12’, on board a Zenit-2 space rocket.

The launch took place on Dec. 25, 1992, 5:56 a.m. from 45/1.

For more information about the launch, click the button.

Launch to space Zenit-2 | Tselina-2 12
Zenit-2 | Tselina-2 12

Agency: N/A

Status: Launch Successful

Launch date: Dec. 25, 1992, 5:56 a.m. UTC

Rocket: Zenit-2

Launch pad: 45/1

Location: Baikonur Cosmodrome, Republic of Kazakhstan

...

Latest news about this satellite

There are no fresh news available about this satellite. Check back as we update our databases every day.


Newsletter sign-up

Weekly statistics, charts and insights to help you stay on top of the space industry.